Regional Weather Roundup
Issued by NWS State College, PA

Home | Current Version | Previous Version | Graphics & Text | Print | Product List | Glossary On
Versions: 1 2 3 4 5 6 7 8 9 10 11 12 13 14 15 16 17 18 19 20 21 22 23 24 25 26 27 28 29 30 31 32 33 34 35 36 37 38 39 40 41 42 43 44 45 46 47 48 49 50
731
ASUS41 KCTP 212303
RWRCTP

REGIONAL WEATHER ROUNDUP
NATIONAL WEATHER SERVICE STATE COLLEGE PA
700 PM EDT THU MAY 21 2015

Note: "fair" indicates few or no clouds below 12,000 feet with no
significant weather and/or obstructions to visibility.

* = STATION THAT DOES NOT REPORT PRECIPITATION /E.G. RAIN...SNOW...ETC/
    THUNDER OR FOG.

PAZ002>004-007>009-013>016-020>023-029>032-220000-
WESTERN PENNSYLVANIA

CITY           SKY/WX    TMP DP  RH WIND       PRES   REMARKS
ERIE           CLOUDY    56  39  53 W15G21    29.95S
MEADVILLE      CLOUDY    54  32  43 W8        29.96R
FRANKLIN*      CLOUDY    52  36  54 W7        29.97S
NEW CASTLE     CLOUDY    53  43  69 CALM      30.00R
BEAVER COUNTY  CLOUDY    52  41  66 NW8       29.98R
BUTLER*        CLOUDY    54  39  58 N8G22     30.00R
PITTSBURGH INT CLOUDY    53  43  68 W6        29.97R
PITTSBURGH     CLOUDY    50  42  74 W5        29.96R
INDIANA*       CLOUDY    50  48  93 CALM      30.00R
LATROBE        LGT RAIN  48  48 100 CALM      29.98R
WASHINGTON CO* CLOUDY    52  43  71 W6        30.01R
$$

PAZ004>006-010>012-017>019-024>028-033>037-041-042-045-046-049>053-220000-
CENTRAL PENNSYLVANIA

CITY           SKY/WX    TMP DP  RH WIND       PRES   REMARKS
BRADFORD       CLOUDY    52  32  46 W8        29.91R
DUBOIS         CLOUDY    50  44  80 SW6       29.93R
CLEARFIELD     LGT RAIN  47  45  93 SW5       29.94R
JOHNSTOWN      LGT RAIN  46  44  93 NW10      29.93R
ALTOONA        LGT RAIN  49  47  93 NW3       29.93R FOG
STATE COLLEGE  CLOUDY    48  46  93 CALM      29.93S FOG
WILLIAMSPORT   CLOUDY    54  43  66 W6        29.90F
SELINSGROVE    CLOUDY    55  44  66 CALM      29.92S
FT INDIANTOWN  CLOUDY    57  43  59 SW6       29.91S
CAPITAL CITY   CLOUDY    56  43  61 W5        29.92S
HARRISBURG     CLOUDY    57  45  64 W7        29.91S
YORK           CLOUDY    55  45  68 CALM      29.92S
$$

PAZ038>040-043-044-047-048-054-055-060>062-067>071-220000-
EASTERN PENNSYLVANIA

CITY           SKY/WX    TMP DP  RH WIND       PRES   REMARKS
SCRANTON       CLOUDY    57  38  48 W5        29.89S
MOUNT POCONO   CLOUDY    54  33  45 NW5       29.89S
ALLENTOWN      CLOUDY    57  40  52 S9        29.91R
QUAKERTOWN*    CLOUDY    54  39  58 SW3       29.93R
READING        CLOUDY    56  38  50 S3        29.91R
LANCASTER      CLOUDY    54  41  61 S5        29.92R
COATESVILLE    CLOUDY    52  46  82 CALM      29.93S
POTTSTOWN      CLOUDY    53  39  59 CALM      29.94R
BLUE BELL      CLOUDY    52  50  93 CALM      29.91F
DOYLESTOWN     CLOUDY    51  45  79 S5        29.91F
WILLOW GROVE   NOT AVBL
NORTH PHILA    CLOUDY    53  47  79 CALM      29.94S
PHILADELPHIA   CLOUDY    52  46  80 VRB3      29.93F
$$



USA.gov is the U.S. government's official web portal to all federal, state and local government web resources and services.